Regional Weather Roundup
Issued by NWS

Home | Current Version | Previous Version | Graphics & Text | Print | Product List | Glossary On
Versions: 1 2 3 4 5 6 7 8 9 10 11 12 13 14 15 16 17 18 19 20 21 22 23 24 25 26 27 28 29 30 31 32 33 34 35 36 37 38 39 40 41 42 43 44 45 46 47 48 49 50
000
ASUS43 KMKX 152021
RWRWI

WISCONSIN REGIONAL WEATHER ROUNDUP
NATIONAL WEATHER SERVICE MILWAUKEE/SULLIVAN WI
300 PM CDT MON SEP 15 2014

NOTE: "FAIR" INDICATES FEW OR NO CLOUDS BELOW 12,000 FEET WITH NO
SIGNIFICANT WEATHER AND/OR OBSTRUCTIONS TO VISIBILITY.

WIZ001-002-006>008-014>016-023>028-152100-
NORTHWEST WISCONSIN

CITY           SKY/WX    TMP DP  RH WIND       PRES   REMARKS
SUPERIOR ARPT  PTSUNNY   58  36  43 NW13      30.18F
ASHLAND        CLOUDY    56  38  50 NW9       30.17F
HAYWARD        MOSUNNY   57  33  40 NW7       30.17F
SIREN          PTSUNNY   58  34  40 N10       30.19F
RICE LAKE      PTSUNNY   61  33  36 NW12G18   30.19S
LADYSMITH      MOSUNNY   58  37  45 NW7       30.17S
EAU CLAIRE     PTSUNNY   60  39  45 NW8       30.16F
MENOMONIE      MOCLDY    60  37  41 NW10      30.18S
NEW RICHMOND   CLOUDY    60  36  40 NW8       30.20S
OSCEOLA        CLOUDY    58  37  44 NW7       30.22F
$$

WIZ003>005-009-010-017-018-152100-
NORTH CENTRAL WISCONSIN

CITY           SKY/WX    TMP DP  RH WIND       PRES   REMARKS
WOODRUFF       PTSUNNY   57  37  47 N8G16     30.12F
RHINELANDER    PTSUNNY   55  41  59 NW6       30.13S
EAGLE RIVER    PTSUNNY   57  37  47 N12G20    30.11S
LAND O LAKES   MOSUNNY   57  40  52 NW13      30.12F
PHILLIPS       MOSUNNY   58  35  43 NW6       30.13F
TOMAHAWK       PTSUNNY   58  39  48 NW10G17   30.13S
MEDFORD        CLOUDY    56  40  56 NW12      30.14S
MERRILL        CLOUDY    59  44  57 N9        30.12S
$$

WIZ029-030-035-036-043>047-152100-
CENTRAL WISCONSIN

CITY           SKY/WX    TMP DP  RH WIND       PRES   REMARKS
WAUSAU         PTSUNNY   60  39  45 NW8       30.10F
MOSINEE        PTSUNNY   61  43  51 NW6       30.13F
MARSHFIELD     PTSUNNY   59  41  51 NW10      30.13F
STEVENS POINT  PTSUNNY   59  40  49 W8        30.12F
WAUPACA        CLOUDY    58  51  79 W8        30.13S
WAUTOMA        PTSUNNY   57  50  77 NW7       30.14F
WISC RAPIDS    LGT RAIN  58  51  78 SW9       30.14F
CAMP DOUGLAS   PTSUNNY   55  50  82 W9        30.15F
$$

WIZ011>013-019>022-031-037>040-048>050-152100-
NORTHEAST WISCONSIN

CITY           SKY/WX    TMP DP  RH WIND       PRES   REMARKS
ANTIGO         PTSUNNY   56  41  56 NW8       30.11S
STURGEON BAY   CLOUDY    57  46  67 W8        30.09F
GREEN BAY      CLOUDY    58  49  72 SW8       30.11F
MANITOWOC      LGT RAIN  55  51  86 W6        30.11F
APPLETON       PTSUNNY   54  46  76 W8        30.13S
CLINTONVILLE   PTSUNNY   59  45  58 NW7       30.10F
OSHKOSH        LGT RAIN  55  51  86 W3        30.12F
$$

WIZ032>034-041-042-053>061-152100-
SOUTHWEST WISCONSIN

CITY           SKY/WX    TMP DP  RH WIND       PRES   REMARKS
LA CROSSE      PTSUNNY   61  46  57 W9        30.17F
SPARTA         SUNNY     58  46  63 NW9       30.17F
VIROQUA        FAIR      57  44  61 NW10      30.17S
BOSCOBEL       PTSUNNY   61  48  62 N10       30.17R
PRAIRIE DU CHI CLOUDY    56  47  70 NW6       30.16S
PLATTEVILLE    CLOUDY    55  50  85 N9G16     30.15R
$$

WIZ056-057-062-063-064-067-068-152100-
SOUTH CENTRAL WISCONSIN

CITY           SKY/WX    TMP DP  RH WIND       PRES   REMARKS
BARABOO/DELLS  CLOUDY    54  47  77 NW9G20    30.14S
LONE ROCK      PTSUNNY   61  48  62 N8        30.15S
WATERTOWN      LGT RAIN  51  51  99 NW3       30.12F
MADISON        LGT RAIN  53  50  89 NW7       30.14F
MIDDLETON      CLOUDY    55  51  87 N6        30.14S
MONROE         LGT RAIN  50  46  87 N9        30.13S
JANESVILLE     CLOUDY    55  48  76 N7        30.12R
$$

WIZ051-052-058>065-066-070>072-152100-
SOUTHEAST WISCONSIN

CITY           SKY/WX    TMP DP  RH WIND       PRES   REMARKS
MILWAUKEE      CLOUDY    55  51  86 N12       30.11R
WAUKESHA       LGT RAIN  52  50  93 NW6       30.14R FOG
MILWAUKEE/TIMM RAIN      54  50  87 N6        30.13S FOG
RACINE         LGT RAIN  55  52  89 N13       30.12R FOG
BURLINGTON     LGT RAIN  54  51  89 N7        30.11R
KENOSHA        CLOUDY    59  51  75 N3        30.10S
FOND DU LAC    LGT RAIN  53  50  89 W5        30.13F
SHEBOYGAN      LGT RAIN  55  52  89 W6        30.12S
WEST BEND      LGT RAIN  52  46  82 NW6       30.13S
JUNEAU         RAIN      51  49  93 N3        30.14S
$$

LSZ147-162-152100-
LAKE SUPERIOR

STATION/POSITION TIME  TEMP    WIND        PRES    WAVE
                       AIR SEA DIR/SP/G            HT/PER
                 (UTC) (F)     (DEG/KT/KT) (MB)    (FT/S)
W MID LAKE BUOY  1950   50 48  240/ 12/ 14 1020.0F   1/ 4
DEVILS ISLAND    2000   53     240/  9/ 11 1021.1F
PORT WING        1900   54     290/ 10/ 13 1022.0
SAXON HARBOR     1900   55     310/ 12/ 15 1021.3S
$$

LMZ867-665-643>646-152100-
LAKE MICHIGAN

STATION/POSITION TIME  TEMP    WIND        PRES    WAVE
                       AIR SEA DIR/SP/G            HT/PER
                 (UTC) (F)     (DEG/KT/KT) (MB)    (FT/S)
N MID LAKE BUOY  1950   56 60  240/  8/  8 1019.0F   1/ 5
NORTHPORT PIER   1900   57     130/  6/  7 1019.3F
KEWAUNEE LAKESHO 1900   56     270/  5/  7 1018.7F
SHEBOYGAN LAKESH 2000   53 48     CALM     1020.3F
PORT WASHINGTON  1940   54     330/  4/  6 1020.7R
ATWATER BUOY     2000   54     350/ 14/ 16 1020.8R
MILWAUKEE LAKESH 2000   54     350/ 10/ 13   N/A
S MID LAKE BUOY  1950   61 64  290/  4/  6 1018.8F   1/ 3
KENOSHA   LAKESH 2000   55      10/  8/  9 1019.0S
$$

TC  - TEMPERATURE IN CELSIUS
VSB - VISIBILITY IN STATUTE MILES
WCI - WIND CHILL INDEX
HX  - HEAT INDEX



USA.gov is the U.S. government's official web portal to all federal, state and local government web resources and services.